Year,Month,Day,Hour,Minute,Value (Times are PST for temperature in C)
2015,07,18,00,00,17.60
2015,07,18,00,01,17.60
2015,07,18,00,02,17.60
2015,07,18,00,03,17.60
2015,07,18,00,04,17.60
2015,07,18,00,05,17.60
2015,07,18,00,06,17.60
2015,07,18,00,07,17.60
2015,07,18,00,08,17.60
2015,07,18,00,09,17.50
2015,07,18,00,10,17.50
2015,07,18,00,11,17.50
2015,07,18,00,12,17.50
2015,07,18,00,13,17.40
2015,07,18,00,14,17.40
2015,07,18,00,15,17.40
2015,07,18,00,16,17.40
2015,07,18,00,17,17.40
2015,07,18,00,18,17.40
2015,07,18,00,19,17.40
2015,07,18,00,20,17.40
2015,07,18,00,21,17.40
2015,07,18,00,22,17.30
2015,07,18,00,23,17.30
2015,07,18,00,24,17.30
2015,07,18,00,25,17.30
2015,07,18,00,26,17.30
2015,07,18,00,27,17.30
2015,07,18,00,28,17.30
2015,07,18,00,29,17.30
2015,07,18,00,30,17.30
2015,07,18,00,31,17.30
2015,07,18,00,32,17.30
2015,07,18,00,33,17.30
2015,07,18,00,34,17.30
2015,07,18,00,35,17.30
2015,07,18,00,36,17.30
2015,07,18,00,37,17.30
2015,07,18,00,38,17.30
2015,07,18,00,39,17.30
2015,07,18,00,40,17.30
2015,07,18,00,41,17.30
2015,07,18,00,42,17.30
2015,07,18,00,43,17.30
2015,07,18,00,44,17.20
2015,07,18,00,45,17.20
2015,07,18,00,46,17.20
2015,07,18,00,47,17.20
2015,07,18,00,48,17.20
2015,07,18,00,49,17.10
2015,07,18,00,50,17.10
2015,07,18,00,51,17.10
2015,07,18,00,52,17.10
2015,07,18,00,53,17.10
2015,07,18,00,54,17.10
2015,07,18,00,55,17.10
2015,07,18,00,56,17.00
2015,07,18,00,57,17.00
2015,07,18,00,58,17.00
2015,07,18,00,59,17.00
2015,07,18,01,00,17.00
2015,07,18,01,01,17.00
2015,07,18,01,02,17.00
2015,07,18,01,03,17.00
2015,07,18,01,04,17.00
2015,07,18,01,05,17.00
2015,07,18,01,06,17.00
2015,07,18,01,07,17.00
2015,07,18,01,08,17.00
2015,07,18,01,09,17.00
2015,07,18,01,10,17.00
2015,07,18,01,11,16.90
2015,07,18,01,12,16.90
2015,07,18,01,13,16.90
2015,07,18,01,14,16.90
2015,07,18,01,15,16.90
2015,07,18,01,16,16.90
2015,07,18,01,17,16.90
2015,07,18,01,18,16.90
2015,07,18,01,19,16.80
2015,07,18,01,20,16.80
2015,07,18,01,21,16.80
2015,07,18,01,22,16.80
2015,07,18,01,23,16.80
2015,07,18,01,24,16.80
2015,07,18,01,25,16.80
2015,07,18,01,26,16.70
2015,07,18,01,27,16.70
2015,07,18,01,28,16.70
2015,07,18,01,29,16.70
2015,07,18,01,30,16.70
2015,07,18,01,31,16.70
2015,07,18,01,32,16.70
2015,07,18,01,33,16.70
2015,07,18,01,34,16.70
2015,07,18,01,35,16.70
2015,07,18,01,36,16.70
2015,07,18,01,37,16.70
2015,07,18,01,38,16.70
2015,07,18,01,39,16.60
2015,07,18,01,40,16.60
2015,07,18,01,41,16.60
2015,07,18,01,42,16.60
2015,07,18,01,43,16.60
2015,07,18,01,44,16.60
2015,07,18,01,45,16.60
2015,07,18,01,46,16.60
2015,07,18,01,47,16.60
2015,07,18,01,48,16.50
2015,07,18,01,49,16.50
2015,07,18,01,50,16.50
2015,07,18,01,51,16.50
2015,07,18,01,52,16.40
2015,07,18,01,53,16.40
2015,07,18,01,54,16.40
2015,07,18,01,55,16.40
2015,07,18,01,56,16.40
2015,07,18,01,57,16.30
2015,07,18,01,58,16.30
2015,07,18,01,59,16.30
2015,07,18,02,00,16.30
2015,07,18,02,01,16.30
2015,07,18,02,02,16.30
2015,07,18,02,03,16.30
2015,07,18,02,04,16.30
2015,07,18,02,05,16.30
2015,07,18,02,06,16.30
2015,07,18,02,07,16.20
2015,07,18,02,08,16.20
2015,07,18,02,09,16.20
2015,07,18,02,10,16.20
2015,07,18,02,11,16.20
2015,07,18,02,12,16.20
2015,07,18,02,13,16.20
2015,07,18,02,14,16.20
2015,07,18,02,15,16.10
2015,07,18,02,16,16.10
2015,07,18,02,17,16.10
2015,07,18,02,18,16.10
2015,07,18,02,19,16.10
2015,07,18,02,20,16.10
2015,07,18,02,21,16.00
2015,07,18,02,22,16.00
2015,07,18,02,23,16.00
2015,07,18,02,24,16.00
2015,07,18,02,25,16.00
2015,07,18,02,26,15.90
2015,07,18,02,27,15.90
2015,07,18,02,28,15.90
2015,07,18,02,29,15.90
2015,07,18,02,30,15.90
2015,07,18,02,31,15.90
2015,07,18,02,32,15.90
2015,07,18,02,33,15.90
2015,07,18,02,34,15.90
2015,07,18,02,35,15.90
2015,07,18,02,36,15.90
2015,07,18,02,37,15.90
2015,07,18,02,38,15.90
2015,07,18,02,39,15.90
2015,07,18,02,40,15.90
2015,07,18,02,41,15.90
2015,07,18,02,42,16.00
2015,07,18,02,43,16.00
2015,07,18,02,44,16.00
2015,07,18,02,45,16.00
2015,07,18,02,46,16.00
2015,07,18,02,47,16.00
2015,07,18,02,48,16.00
2015,07,18,02,49,16.00
2015,07,18,02,50,16.00
2015,07,18,02,51,16.00
2015,07,18,02,52,16.00
2015,07,18,02,53,16.00
2015,07,18,02,54,15.90
2015,07,18,02,55,15.90
2015,07,18,02,56,15.90
2015,07,18,02,57,15.90
2015,07,18,02,58,15.90
2015,07,18,02,59,15.90
2015,07,18,03,00,15.90
2015,07,18,03,01,15.80
2015,07,18,03,02,15.80
2015,07,18,03,03,15.80
2015,07,18,03,04,15.80
2015,07,18,03,05,15.70
2015,07,18,03,06,15.70
2015,07,18,03,07,15.70
2015,07,18,03,08,15.70
2015,07,18,03,09,15.70
2015,07,18,03,10,15.70
2015,07,18,03,11,15.70
2015,07,18,03,12,15.70
2015,07,18,03,13,15.70
2015,07,18,03,14,15.70
2015,07,18,03,15,15.70
2015,07,18,03,16,15.70
2015,07,18,03,17,15.70
2015,07,18,03,18,15.70
2015,07,18,03,19,15.70
2015,07,18,03,20,15.60
2015,07,18,03,21,15.60
2015,07,18,03,22,15.60
2015,07,18,03,23,15.60
2015,07,18,03,24,15.60
2015,07,18,03,25,15.60
2015,07,18,03,26,15.60
2015,07,18,03,27,15.60
2015,07,18,03,28,15.50
2015,07,18,03,29,15.50
2015,07,18,03,30,15.50
2015,07,18,03,31,15.50
2015,07,18,03,32,15.50
2015,07,18,03,33,15.40
2015,07,18,03,34,15.40
2015,07,18,03,35,15.40
2015,07,18,03,36,15.40
2015,07,18,03,37,15.40
2015,07,18,03,38,15.40
2015,07,18,03,39,15.30
2015,07,18,03,40,15.30
2015,07,18,03,41,15.30
2015,07,18,03,42,15.30
2015,07,18,03,43,15.20
2015,07,18,03,44,15.20
2015,07,18,03,45,15.20
2015,07,18,03,46,15.20
2015,07,18,03,47,15.20
2015,07,18,03,48,15.20
2015,07,18,03,49,15.10
2015,07,18,03,50,15.10
2015,07,18,03,51,15.10
2015,07,18,03,52,15.10
2015,07,18,03,53,15.10
2015,07,18,03,54,15.00
2015,07,18,03,55,15.00
2015,07,18,03,56,15.00
2015,07,18,03,57,15.00
2015,07,18,03,58,15.00
2015,07,18,03,59,14.90
2015,07,18,04,00,14.90
2015,07,18,04,01,14.90
2015,07,18,04,02,14.90
2015,07,18,04,03,14.90
2015,07,18,04,04,14.90
2015,07,18,04,05,14.90
2015,07,18,04,06,14.90
2015,07,18,04,07,14.90
2015,07,18,04,08,14.90
2015,07,18,04,09,14.90
2015,07,18,04,10,14.90
2015,07,18,04,11,14.90
2015,07,18,04,12,14.90
2015,07,18,04,13,14.90
2015,07,18,04,14,14.90
2015,07,18,04,15,14.90
2015,07,18,04,16,14.90
2015,07,18,04,17,14.90
2015,07,18,04,18,14.80
2015,07,18,04,19,14.80
2015,07,18,04,20,14.80
2015,07,18,04,21,14.80
2015,07,18,04,22,14.80
2015,07,18,04,23,14.80
2015,07,18,04,24,14.80
2015,07,18,04,25,14.80
2015,07,18,04,26,14.80
2015,07,18,04,27,14.80
2015,07,18,04,28,14.80
2015,07,18,04,29,14.70
2015,07,18,04,30,14.70
2015,07,18,04,31,14.70
2015,07,18,04,32,14.70
2015,07,18,04,33,14.70
2015,07,18,04,34,14.70
2015,07,18,04,35,14.70
2015,07,18,04,36,14.60
2015,07,18,04,37,14.70
2015,07,18,04,38,14.70
2015,07,18,04,39,14.70
2015,07,18,04,40,14.70
2015,07,18,04,41,14.70
2015,07,18,04,42,14.70
2015,07,18,04,43,14.70
2015,07,18,04,44,14.70
2015,07,18,04,45,14.70
2015,07,18,04,46,14.70
2015,07,18,04,47,14.70
2015,07,18,04,48,14.70
2015,07,18,04,49,14.70
2015,07,18,04,50,14.70
2015,07,18,04,51,14.70
2015,07,18,04,52,14.70
2015,07,18,04,53,14.70
2015,07,18,04,54,14.70
2015,07,18,04,55,14.60
2015,07,18,04,56,14.60
2015,07,18,04,57,14.60
2015,07,18,04,58,14.60
2015,07,18,04,59,14.60
2015,07,18,05,00,14.60
2015,07,18,05,01,14.60
2015,07,18,05,02,14.60
2015,07,18,05,03,14.60
2015,07,18,05,04,14.60
2015,07,18,05,05,14.60
2015,07,18,05,06,14.60
2015,07,18,05,07,14.50
2015,07,18,05,08,14.50
2015,07,18,05,09,14.50
2015,07,18,05,10,14.40
2015,07,18,05,11,14.40
2015,07,18,05,12,14.40
2015,07,18,05,13,14.40
2015,07,18,05,14,14.40
2015,07,18,05,15,14.40
2015,07,18,05,16,14.40
2015,07,18,05,17,14.40
2015,07,18,05,18,14.40
2015,07,18,05,19,14.40
2015,07,18,05,20,14.40
2015,07,18,05,21,14.40
2015,07,18,05,22,14.50
2015,07,18,05,23,14.50
2015,07,18,05,24,14.50
2015,07,18,05,25,14.50
2015,07,18,05,26,14.50
2015,07,18,05,27,14.50
2015,07,18,05,28,14.40
2015,07,18,05,29,14.40
2015,07,18,05,30,14.40
2015,07,18,05,31,14.40
2015,07,18,05,32,14.40
2015,07,18,05,33,14.40
2015,07,18,05,34,14.40
2015,07,18,05,35,14.40
2015,07,18,05,36,14.30
2015,07,18,05,37,14.30
2015,07,18,05,38,14.30
2015,07,18,05,39,14.30
2015,07,18,05,40,14.30
2015,07,18,05,41,14.30
2015,07,18,05,42,14.30
2015,07,18,05,43,14.30
2015,07,18,05,44,14.30
2015,07,18,05,45,14.30
2015,07,18,05,46,14.30
2015,07,18,05,47,14.30
2015,07,18,05,48,14.30
2015,07,18,05,49,14.40
2015,07,18,05,50,14.40
2015,07,18,05,51,14.40
2015,07,18,05,52,14.40
2015,07,18,05,53,14.40
2015,07,18,05,54,14.40
2015,07,18,05,55,14.40
2015,07,18,05,56,14.40
2015,07,18,05,57,14.40
2015,07,18,05,58,14.40
2015,07,18,05,59,14.40
2015,07,18,06,00,14.40
2015,07,18,06,01,14.40
2015,07,18,06,02,14.40
2015,07,18,06,03,14.40
2015,07,18,06,04,14.50
2015,07,18,06,05,14.50
2015,07,18,06,06,14.60
2015,07,18,06,07,14.60
2015,07,18,06,08,14.60
2015,07,18,06,09,14.70
2015,07,18,06,10,14.70
2015,07,18,06,11,14.80
2015,07,18,06,12,14.80
2015,07,18,06,13,14.90
2015,07,18,06,14,14.90
2015,07,18,06,15,15.00
2015,07,18,06,16,15.10
2015,07,18,06,17,15.10
2015,07,18,06,18,15.20
2015,07,18,06,19,15.20
2015,07,18,06,20,15.30
2015,07,18,06,21,15.30
2015,07,18,06,22,15.30
2015,07,18,06,23,15.30
2015,07,18,06,24,15.40
2015,07,18,06,25,15.40
2015,07,18,06,26,15.40
2015,07,18,06,27,15.40
2015,07,18,06,28,15.50
2015,07,18,06,29,15.50
2015,07,18,06,30,15.50
2015,07,18,06,31,15.60
2015,07,18,06,32,15.60
2015,07,18,06,33,15.60
2015,07,18,06,34,15.60
2015,07,18,06,35,15.60
2015,07,18,06,36,15.70
2015,07,18,06,37,15.70
2015,07,18,06,38,15.70
2015,07,18,06,39,15.70
2015,07,18,06,40,15.70
2015,07,18,06,41,15.80
2015,07,18,06,42,15.80
2015,07,18,06,43,15.80
2015,07,18,06,44,15.80
2015,07,18,06,45,15.90
2015,07,18,06,46,15.90
2015,07,18,06,47,16.00
2015,07,18,06,48,16.00
2015,07,18,06,49,16.00
2015,07,18,06,50,16.10
2015,07,18,06,51,16.10
2015,07,18,06,52,16.20
2015,07,18,06,53,16.20
2015,07,18,06,54,16.30
2015,07,18,06,55,16.30
2015,07,18,06,56,16.40
2015,07,18,06,57,16.40
2015,07,18,06,58,16.40
2015,07,18,06,59,16.50
2015,07,18,07,00,16.50
2015,07,18,07,01,16.60
2015,07,18,07,02,16.60
2015,07,18,07,03,16.60
2015,07,18,07,04,16.70
2015,07,18,07,05,16.70
2015,07,18,07,06,16.80
2015,07,18,07,07,16.90
2015,07,18,07,08,17.00
2015,07,18,07,09,17.10
2015,07,18,07,10,17.20
2015,07,18,07,11,17.30
2015,07,18,07,12,17.40
2015,07,18,07,13,17.50
2015,07,18,07,14,17.60
2015,07,18,07,15,17.70
2015,07,18,07,16,17.80
2015,07,18,07,17,17.80
2015,07,18,07,18,17.90
2015,07,18,07,19,18.00
2015,07,18,07,20,18.10
2015,07,18,07,21,18.20
2015,07,18,07,22,18.30
2015,07,18,07,23,18.30
2015,07,18,07,24,18.30
2015,07,18,07,25,18.30
2015,07,18,07,26,18.30
2015,07,18,07,27,18.30
2015,07,18,07,28,18.30
2015,07,18,07,29,18.20
2015,07,18,07,30,18.10
2015,07,18,07,31,18.10
2015,07,18,07,32,18.00
2015,07,18,07,33,18.00
2015,07,18,07,34,17.90
2015,07,18,07,35,17.90
2015,07,18,07,36,17.90
2015,07,18,07,37,17.90
2015,07,18,07,38,17.90
2015,07,18,07,39,17.90
2015,07,18,07,40,17.90
2015,07,18,07,41,17.90
2015,07,18,07,42,17.90
2015,07,18,07,43,17.90
2015,07,18,07,44,17.90
2015,07,18,07,45,18.00
2015,07,18,07,46,18.00
2015,07,18,07,47,18.10
2015,07,18,07,48,18.10
2015,07,18,07,49,18.20
2015,07,18,07,50,18.30
2015,07,18,07,51,18.30
2015,07,18,07,52,18.40
2015,07,18,07,53,18.50
2015,07,18,07,54,18.50
2015,07,18,07,55,18.60
2015,07,18,07,56,18.70
2015,07,18,07,57,18.80
2015,07,18,07,58,18.90
2015,07,18,07,59,19.00
2015,07,18,08,00,19.00
2015,07,18,08,01,19.10
2015,07,18,08,02,19.20
2015,07,18,08,03,19.20
2015,07,18,08,04,19.20
2015,07,18,08,05,19.30
2015,07,18,08,06,19.30
2015,07,18,08,07,19.30
2015,07,18,08,08,19.30
2015,07,18,08,09,19.30
2015,07,18,08,10,19.30
2015,07,18,08,11,19.30
2015,07,18,08,12,19.30
2015,07,18,08,13,19.30
2015,07,18,08,14,19.30
2015,07,18,08,15,19.30
2015,07,18,08,16,19.30
2015,07,18,08,17,19.40
2015,07,18,08,18,19.40
2015,07,18,08,19,19.40
2015,07,18,08,20,19.50
2015,07,18,08,21,19.50
2015,07,18,08,22,19.60
2015,07,18,08,23,19.60
2015,07,18,08,24,19.70
2015,07,18,08,25,19.70
2015,07,18,08,26,19.70
2015,07,18,08,27,19.80
2015,07,18,08,28,19.80
2015,07,18,08,29,19.80
2015,07,18,08,30,19.80
2015,07,18,08,31,19.80
2015,07,18,08,32,19.90
2015,07,18,08,33,19.90
2015,07,18,08,34,20.00
2015,07,18,08,35,20.10
2015,07,18,08,36,20.10
2015,07,18,08,37,20.20
2015,07,18,08,38,20.30
2015,07,18,08,39,20.40
2015,07,18,08,40,20.40
2015,07,18,08,41,20.50
2015,07,18,08,42,20.60
2015,07,18,08,43,20.70
2015,07,18,08,44,20.70
2015,07,18,08,45,20.70
2015,07,18,08,46,20.70
2015,07,18,08,47,20.70
2015,07,18,08,48,20.60
2015,07,18,08,49,20.60
2015,07,18,08,50,20.60
2015,07,18,08,51,20.60
2015,07,18,08,52,20.60
2015,07,18,08,53,20.60
2015,07,18,08,54,20.60
2015,07,18,08,55,20.60
2015,07,18,08,56,20.60
2015,07,18,08,57,20.70
2015,07,18,08,58,20.80
2015,07,18,08,59,20.80
2015,07,18,09,00,20.90
2015,07,18,09,01,21.00
2015,07,18,09,02,21.00
2015,07,18,09,03,21.10
2015,07,18,09,04,21.10
2015,07,18,09,05,21.10
2015,07,18,09,06,21.10
2015,07,18,09,07,21.00
2015,07,18,09,08,21.00
2015,07,18,09,09,20.90
2015,07,18,09,10,20.90
2015,07,18,09,11,20.90
2015,07,18,09,12,20.90
2015,07,18,09,13,21.00
2015,07,18,09,14,21.10
2015,07,18,09,15,21.10
2015,07,18,09,16,21.10
2015,07,18,09,17,21.20
2015,07,18,09,18,21.20
2015,07,18,09,19,21.20
2015,07,18,09,20,21.20
2015,07,18,09,21,21.10
2015,07,18,09,22,21.10
2015,07,18,09,23,21.10
2015,07,18,09,24,21.10
2015,07,18,09,25,21.20
2015,07,18,09,26,21.30
2015,07,18,09,27,21.30
2015,07,18,09,28,21.40
2015,07,18,09,29,21.50
2015,07,18,09,30,21.50
2015,07,18,09,31,21.60
2015,07,18,09,32,21.60
2015,07,18,09,33,21.60
2015,07,18,09,34,21.60
2015,07,18,09,35,21.70
2015,07,18,09,36,21.60
2015,07,18,09,37,21.60
2015,07,18,09,38,21.50
2015,07,18,09,39,21.30
2015,07,18,09,40,21.20
2015,07,18,09,41,21.10
2015,07,18,09,42,21.00
2015,07,18,09,43,20.90
2015,07,18,09,44,20.90
2015,07,18,09,45,20.90
2015,07,18,09,46,21.00
2015,07,18,09,47,21.10
2015,07,18,09,48,21.20
2015,07,18,09,49,21.30
2015,07,18,09,50,21.30
2015,07,18,09,51,21.40
2015,07,18,09,52,21.50
2015,07,18,09,53,21.60
2015,07,18,09,54,21.60
2015,07,18,09,55,21.60
2015,07,18,09,56,21.70
2015,07,18,09,57,21.70
2015,07,18,09,58,21.80
2015,07,18,09,59,21.80
2015,07,18,10,00,21.80
2015,07,18,10,01,21.90
2015,07,18,10,02,21.90
2015,07,18,10,03,21.80
2015,07,18,10,04,21.70
2015,07,18,10,05,21.60
2015,07,18,10,06,21.60
2015,07,18,10,07,21.50
2015,07,18,10,08,21.50
2015,07,18,10,09,21.50
2015,07,18,10,10,21.60
2015,07,18,10,11,21.60
2015,07,18,10,12,21.60
2015,07,18,10,13,21.70
2015,07,18,10,14,21.70
2015,07,18,10,15,21.70
2015,07,18,10,16,21.70
2015,07,18,10,17,21.70
2015,07,18,10,18,21.70
2015,07,18,10,19,21.70
2015,07,18,10,20,21.70
2015,07,18,10,21,21.70
2015,07,18,10,22,21.80
2015,07,18,10,23,21.80
2015,07,18,10,24,21.90
2015,07,18,10,25,21.90
2015,07,18,10,26,21.90
2015,07,18,10,27,21.90
2015,07,18,10,28,21.90
2015,07,18,10,29,21.80
2015,07,18,10,30,21.80
2015,07,18,10,31,21.80
2015,07,18,10,32,21.90
2015,07,18,10,33,21.90
2015,07,18,10,34,21.90
2015,07,18,10,35,22.00
2015,07,18,10,36,22.00
2015,07,18,10,37,22.00
2015,07,18,10,38,22.00
2015,07,18,10,39,21.90
2015,07,18,10,40,21.90
2015,07,18,10,41,21.90
2015,07,18,10,42,21.90
2015,07,18,10,43,22.00
2015,07,18,10,44,22.00
2015,07,18,10,45,22.10
2015,07,18,10,46,22.20
2015,07,18,10,47,22.30
2015,07,18,10,48,22.50
2015,07,18,10,49,22.60
2015,07,18,10,50,22.70
2015,07,18,10,51,22.80
2015,07,18,10,52,22.90
2015,07,18,10,53,23.00
2015,07,18,10,54,23.10
2015,07,18,10,55,23.20
2015,07,18,10,56,23.30
2015,07,18,10,57,23.50
2015,07,18,10,58,23.70
2015,07,18,10,59,23.90
2015,07,18,11,00,24.00
2015,07,18,11,01,24.20
2015,07,18,11,02,24.40
2015,07,18,11,03,24.50
2015,07,18,11,04,24.70
2015,07,18,11,05,24.80
2015,07,18,11,06,24.80
2015,07,18,11,07,24.80
2015,07,18,11,08,24.90
2015,07,18,11,09,24.90
2015,07,18,11,10,25.00
2015,07,18,11,11,25.00
2015,07,18,11,12,25.10
2015,07,18,11,13,25.10
2015,07,18,11,14,25.20
2015,07,18,11,15,25.20
2015,07,18,11,16,25.10
2015,07,18,11,17,25.00
2015,07,18,11,18,25.00
2015,07,18,11,19,24.90
2015,07,18,11,20,24.90
2015,07,18,11,21,25.00
2015,07,18,11,22,25.00
2015,07,18,11,23,25.10
2015,07,18,11,24,25.10
2015,07,18,11,25,25.10
2015,07,18,11,26,25.10
2015,07,18,11,27,25.10
2015,07,18,11,28,25.10
2015,07,18,11,29,25.10
2015,07,18,11,30,25.10
2015,07,18,11,31,25.10
2015,07,18,11,32,25.10
2015,07,18,11,33,25.10
2015,07,18,11,34,25.10
2015,07,18,11,35,25.00
2015,07,18,11,36,25.00
2015,07,18,11,37,24.90
2015,07,18,11,38,24.80
2015,07,18,11,39,24.70
2015,07,18,11,40,24.70
2015,07,18,11,41,24.60
2015,07,18,11,42,24.60
2015,07,18,11,43,24.60
2015,07,18,11,44,24.40
2015,07,18,11,45,24.30
2015,07,18,11,46,24.30
2015,07,18,11,47,24.20
2015,07,18,11,48,24.00
2015,07,18,11,49,23.80
2015,07,18,11,50,23.60
2015,07,18,11,51,23.40
2015,07,18,11,52,23.30
2015,07,18,11,53,23.30
2015,07,18,11,54,23.30
2015,07,18,11,55,23.30
2015,07,18,11,56,23.20
2015,07,18,11,57,23.20
2015,07,18,11,58,23.30
2015,07,18,11,59,23.40
2015,07,18,12,00,23.40
2015,07,18,12,01,23.50
2015,07,18,12,02,23.60
2015,07,18,12,03,23.80
2015,07,18,12,04,23.90
2015,07,18,12,05,24.00
2015,07,18,12,06,24.10
2015,07,18,12,07,24.20
2015,07,18,12,08,24.30
2015,07,18,12,09,24.40
2015,07,18,12,10,24.40
2015,07,18,12,11,24.40
2015,07,18,12,12,24.50
2015,07,18,12,13,24.50
2015,07,18,12,14,24.60
2015,07,18,12,15,24.80
2015,07,18,12,16,24.90
2015,07,18,12,17,25.00
2015,07,18,12,18,25.00
2015,07,18,12,19,25.00
2015,07,18,12,20,24.90
2015,07,18,12,21,24.70
2015,07,18,12,22,24.50
2015,07,18,12,23,24.30
2015,07,18,12,24,24.20
2015,07,18,12,25,24.10
2015,07,18,12,26,24.00
2015,07,18,12,27,24.00
2015,07,18,12,28,23.90
2015,07,18,12,29,23.80
2015,07,18,12,30,23.70
2015,07,18,12,31,23.60
2015,07,18,12,32,23.50
2015,07,18,12,33,23.40
2015,07,18,12,34,23.30
2015,07,18,12,35,23.20
2015,07,18,12,36,23.10
2015,07,18,12,37,23.00
2015,07,18,12,38,22.80
2015,07,18,12,39,22.70
2015,07,18,12,40,22.70
2015,07,18,12,41,22.60
2015,07,18,12,42,22.60
2015,07,18,12,43,22.60
2015,07,18,12,44,22.60
2015,07,18,12,45,22.60
2015,07,18,12,46,22.60
2015,07,18,12,47,22.50
2015,07,18,12,48,22.50
2015,07,18,12,49,22.50
2015,07,18,12,50,22.60
2015,07,18,12,51,22.70
2015,07,18,12,52,22.70
2015,07,18,12,53,22.80
2015,07,18,12,54,22.80
2015,07,18,12,55,22.80
2015,07,18,12,56,22.90
2015,07,18,12,57,23.00
2015,07,18,12,58,23.10
2015,07,18,12,59,23.20
2015,07,18,13,00,23.30
2015,07,18,13,01,23.40
2015,07,18,13,02,23.40
2015,07,18,13,03,23.50
2015,07,18,13,04,23.50
2015,07,18,13,05,23.70
2015,07,18,13,06,23.70
2015,07,18,13,07,23.80
2015,07,18,13,08,23.80
2015,07,18,13,09,23.90
2015,07,18,13,10,23.90
2015,07,18,13,11,24.00
2015,07,18,13,12,23.90
2015,07,18,13,13,23.90
2015,07,18,13,14,24.00
2015,07,18,13,15,24.00
2015,07,18,13,16,24.10
2015,07,18,13,17,24.20
2015,07,18,13,18,24.30
2015,07,18,13,19,24.30
2015,07,18,13,20,24.40
2015,07,18,13,21,24.40
2015,07,18,13,22,24.30
2015,07,18,13,23,24.30
2015,07,18,13,24,24.20
2015,07,18,13,25,24.20
2015,07,18,13,26,24.20
2015,07,18,13,27,24.20
2015,07,18,13,28,24.20
2015,07,18,13,29,24.10
2015,07,18,13,30,24.00
2015,07,18,13,31,23.80
2015,07,18,13,32,23.70
2015,07,18,13,33,23.50
2015,07,18,13,34,23.40
2015,07,18,13,35,23.40
2015,07,18,13,36,23.30
2015,07,18,13,37,23.10
2015,07,18,13,38,23.00
2015,07,18,13,39,23.00
2015,07,18,13,40,22.90
2015,07,18,13,41,23.00
2015,07,18,13,42,23.10
2015,07,18,13,43,23.20
2015,07,18,13,44,23.30
2015,07,18,13,45,23.40
2015,07,18,13,46,23.60
2015,07,18,13,47,23.70
2015,07,18,13,48,23.80
2015,07,18,13,49,23.90
2015,07,18,13,50,24.00
2015,07,18,13,51,24.10
2015,07,18,13,52,24.20
2015,07,18,13,53,24.30
2015,07,18,13,54,24.40
2015,07,18,13,55,24.40
2015,07,18,13,56,24.40
2015,07,18,13,57,24.40
2015,07,18,13,58,24.40
2015,07,18,13,59,24.30
2015,07,18,14,00,24.20
2015,07,18,14,01,24.20
2015,07,18,14,02,24.10
2015,07,18,14,03,24.00
2015,07,18,14,04,23.80
2015,07,18,14,05,23.70
2015,07,18,14,06,23.60
2015,07,18,14,07,23.60
2015,07,18,14,08,23.50
2015,07,18,14,09,23.60
2015,07,18,14,10,23.60
2015,07,18,14,11,23.60
2015,07,18,14,12,23.60
2015,07,18,14,13,23.60
2015,07,18,14,14,23.60
2015,07,18,14,15,23.60
2015,07,18,14,16,23.60
2015,07,18,14,17,23.60
2015,07,18,14,18,23.50
2015,07,18,14,19,23.40
2015,07,18,14,20,23.40
2015,07,18,14,21,23.30
2015,07,18,14,22,23.30
2015,07,18,14,23,23.30
2015,07,18,14,24,23.40
2015,07,18,14,25,23.40
2015,07,18,14,26,23.50
2015,07,18,14,27,23.60
2015,07,18,14,28,23.70
2015,07,18,14,29,23.60
2015,07,18,14,30,23.60
2015,07,18,14,31,23.60
2015,07,18,14,32,23.60
2015,07,18,14,33,23.70
2015,07,18,14,34,23.80
2015,07,18,14,35,23.90
2015,07,18,14,36,24.00
2015,07,18,14,37,24.10
2015,07,18,14,38,24.10
2015,07,18,14,39,24.10
2015,07,18,14,40,24.00
2015,07,18,14,41,24.10
2015,07,18,14,42,24.00
2015,07,18,14,43,24.00
2015,07,18,14,44,23.90
2015,07,18,14,45,23.90
2015,07,18,14,46,23.90
2015,07,18,14,47,23.90
2015,07,18,14,48,23.90
2015,07,18,14,49,23.90
2015,07,18,14,50,23.80
2015,07,18,14,51,23.80
2015,07,18,14,52,23.80
2015,07,18,14,53,23.80
2015,07,18,14,54,23.80
2015,07,18,14,55,23.80
2015,07,18,14,56,23.90
2015,07,18,14,57,24.00
2015,07,18,14,58,24.00
2015,07,18,14,59,24.10
2015,07,18,15,00,24.10
2015,07,18,15,01,24.10
2015,07,18,15,02,24.20
2015,07,18,15,03,24.20
2015,07,18,15,04,24.30
2015,07,18,15,05,24.40
2015,07,18,15,06,24.50
2015,07,18,15,07,24.60
2015,07,18,15,08,24.70
2015,07,18,15,09,24.80
2015,07,18,15,10,24.90
2015,07,18,15,11,25.00
2015,07,18,15,12,25.10
2015,07,18,15,13,25.20
2015,07,18,15,14,25.20
2015,07,18,15,15,25.30
2015,07,18,15,16,25.20
2015,07,18,15,17,25.20
2015,07,18,15,18,25.20
2015,07,18,15,19,25.30
2015,07,18,15,20,25.30
2015,07,18,15,21,25.30
2015,07,18,15,22,25.40
2015,07,18,15,23,25.40
2015,07,18,15,24,25.50
2015,07,18,15,25,25.60
2015,07,18,15,26,25.70
2015,07,18,15,27,25.70
2015,07,18,15,28,25.80
2015,07,18,15,29,25.90
2015,07,18,15,30,26.00
2015,07,18,15,31,26.10
2015,07,18,15,32,26.20
2015,07,18,15,33,26.30
2015,07,18,15,34,26.30
2015,07,18,15,35,26.30
2015,07,18,15,36,26.30
2015,07,18,15,37,26.30
2015,07,18,15,38,26.40
2015,07,18,15,39,26.40
2015,07,18,15,40,26.50
2015,07,18,15,41,26.60
2015,07,18,15,42,26.60
2015,07,18,15,43,26.60
2015,07,18,15,44,26.60
2015,07,18,15,45,26.60
2015,07,18,15,46,26.70
2015,07,18,15,47,26.70
2015,07,18,15,48,26.70
2015,07,18,15,49,26.80
2015,07,18,15,50,26.80
2015,07,18,15,51,26.90
2015,07,18,15,52,26.90
2015,07,18,15,53,26.90
2015,07,18,15,54,26.80
2015,07,18,15,55,26.80
2015,07,18,15,56,26.80
2015,07,18,15,57,26.70
2015,07,18,15,58,26.70
2015,07,18,15,59,26.70
2015,07,18,16,00,26.70
2015,07,18,16,01,26.60
2015,07,18,16,02,26.40
2015,07,18,16,03,26.30
2015,07,18,16,04,26.10
2015,07,18,16,05,26.00
2015,07,18,16,06,25.80
2015,07,18,16,07,25.70
2015,07,18,16,08,25.60
2015,07,18,16,09,25.50
2015,07,18,16,10,25.40
2015,07,18,16,11,25.40
2015,07,18,16,12,25.40
2015,07,18,16,13,25.50
2015,07,18,16,14,25.50
2015,07,18,16,15,25.60
2015,07,18,16,16,25.60
2015,07,18,16,17,25.60
2015,07,18,16,18,25.60
2015,07,18,16,19,25.60
2015,07,18,16,20,25.60
2015,07,18,16,21,25.50
2015,07,18,16,22,25.40
2015,07,18,16,23,25.40
2015,07,18,16,24,25.40
2015,07,18,16,25,25.40
2015,07,18,16,26,25.40
2015,07,18,16,27,25.50
2015,07,18,16,28,25.40
2015,07,18,16,29,25.40
2015,07,18,16,30,25.50
2015,07,18,16,31,25.50
2015,07,18,16,32,25.60
2015,07,18,16,33,25.70
2015,07,18,16,34,25.70
2015,07,18,16,35,25.80
2015,07,18,16,36,25.80
2015,07,18,16,37,25.80
2015,07,18,16,38,25.80
2015,07,18,16,39,25.80
2015,07,18,16,40,25.90
2015,07,18,16,41,25.90
2015,07,18,16,42,25.90
2015,07,18,16,43,25.90
2015,07,18,16,44,25.90
2015,07,18,16,45,25.90
2015,07,18,16,46,25.90
2015,07,18,16,47,25.90
2015,07,18,16,48,25.90
2015,07,18,16,49,25.80
2015,07,18,16,50,25.80
2015,07,18,16,51,25.70
2015,07,18,16,52,25.70
2015,07,18,16,53,25.60
2015,07,18,16,54,25.70
2015,07,18,16,55,25.70
2015,07,18,16,56,25.70
2015,07,18,16,57,25.60
2015,07,18,16,58,25.50
2015,07,18,16,59,25.50
2015,07,18,17,00,25.40
2015,07,18,17,01,25.40
2015,07,18,17,02,25.50
2015,07,18,17,03,25.50
2015,07,18,17,04,25.60
2015,07,18,17,05,25.60
2015,07,18,17,06,25.70
2015,07,18,17,07,25.70
2015,07,18,17,08,25.80
2015,07,18,17,09,25.80
2015,07,18,17,10,25.90
2015,07,18,17,11,25.90
2015,07,18,17,12,25.90
2015,07,18,17,13,26.00
2015,07,18,17,14,26.00
2015,07,18,17,15,26.10
2015,07,18,17,16,26.10
2015,07,18,17,17,26.20
2015,07,18,17,18,26.20
2015,07,18,17,19,26.30